Location: Mt. Bigelow
(32.4165°N, 110.7345°W)
Time: 21:14:00
(UTC-07:00)

N. Korean satellite - Pass Details

Date: 26 February 2019
Orbit: 456 x 510 km, 97.2° (Epoch: 22 March)

Event Time Altitude Azimuth Distance (km) Brightness Sun altitude
Rises 06:07:50 0° 20° (NNE) 2,470 10.4 -10.5°
Reaches altitude 10° 06:09:58 10° 28° (NNE) 1,591 9.5 -10.1°
Maximum altitude 06:13:11 40° 99° (E) 686 8.0 -9.4°
Drops below altitude 10° 06:16:24 10° 170° (S) 1,584 9.4 -8.7°
Sets 06:18:30 0° 178° (S) 2,457 10.2 -8.3°
